Location: Newark
(50.0306°N, 2.3272°E)
Time: 22:57:26
(UTC+00:00)

A-11 Canister half - Pass Details

Date: 08 December 2019
Orbit: 1525 x 1684 km, 47.3° (Epoch: 18 January)

Event Time Altitude Azimuth Distance (km) Brightness Sun altitude
Rises 09:51:23 0° 271° (W) 4,939 11.4 13.2°
Reaches altitude 10° 09:54:34 10° 270° (W) 3,947 10.9 13.4°
Maximum altitude 10:04:41 76° 187° (S) 1,707 9.7 14.1°
Drops below altitude 10° 10:14:34 10° 104° (ESE) 3,856 11.7 14.7°
Sets 10:17:38 0° 103° (ESE) 4,821 12.1 14.9°
